Overview Statistics Trail Chart Weather Telemetry Raw packets
 

This is the latest recevied weather packets stored in our database for station/object K6POO-1. If no packets are shown the sender has not sent any weather packets the latest 10 day(s).

<< 108 109 110 111 112 113 114 >>
Time Temp. Humidity Pressure Rain* Wind** Luminosity Snow
1787864574 22.78° C 63% 1015.2 hPa 0 mm - 468 W/m² -
1787864269 23.33° C 61% 1015.2 hPa 0 mm - 695 W/m² -
1787863963 22.78° C 62% 1015.3 hPa 0 mm - 706 W/m² -
1787863662 23.33° C 61% 1015.2 hPa 0 mm - 402 W/m² -
1787863355 23.33° C 61% 1015.3 hPa 0 mm - 427 W/m² -
1787863052 23.89° C 60% 1015.3 hPa 0 mm - 445 W/m² -
1787862752 23.89° C 60% 1015.3 hPa 0 mm - 491 W/m² -
1787862452 23.89° C 60% 1015.2 hPa 0 mm - 409 W/m² -
1787862147 24.44° C 59% 1015.4 hPa 0 mm - 460 W/m² -
1787861842 24.44° C 60% 1015.2 hPa 0 mm - 676 W/m² -
1787861542 23.89° C 60% 1015.2 hPa 0 mm - 581 W/m² -
1787861235 24.44° C 58% 1015.3 hPa 0 mm - 791 W/m² -
1787860934 24.44° C 58% 1015.2 hPa 0 mm - 830 W/m² -
1787860629 25° C 56% 1015.1 hPa 0 mm - 516 W/m² -
1787860324 24.44° C 57% 1015.3 hPa 0 mm - 862 W/m² -
1787860020 23.89° C 59% 1015.3 hPa 0 mm - 998 W/m² -
1787859715 23.33° C 61% 1015.4 hPa 0 mm - 359 W/m² -
1787859414 23.33° C 61% 1015.3 hPa 0 mm - 514 W/m² -
1787859109 23.33° C 61% 1015.2 hPa 0 mm - 773 W/m² -
1787858807 23.33° C 60% 1015.2 hPa 0 mm - 851 W/m² -
1787858502 23.89° C 60% 1015.2 hPa 0 mm - 938 W/m² -
1787858201 24.44° C 60% 1015.3 hPa 0 mm - 988 W/m² -
1787857897 23.89° C 60% 1015 hPa 0 mm - 556 W/m² -
1787857593 23.89° C 60% 1015.3 hPa 0 mm - 713 W/m² -
1787857293 23.89° C 59% 1015.4 hPa 0 mm - 532 W/m² -

* Rain latest hour (hover to see other rain measurements)
** Current wind speed in m/s (hover to see current wind gust speed)